This demonstration page uses our WeatherBlox Daily Observations layout. Learn more.

Left ArrowRight Arrow

40.92945, -100.16068

Hourly Observations for May 6, 2015

Temp ( °F °C ) Dew Point ( °F °C ) Humidity (%) Winds ( mph kmh ) Pressure ( in mb ) Visibility ( mi km ) Precip ( " mm )
12:15 am 00:15 Cloudy with Light Rain 58 14.3 56 13.5 95 95 SE 16 26 29.8 1009 5 8.0467 N/A
12:35 am 00:35 Cloudy 58 14.7 57 14 96 96 SE 18 30 29.77 1008 7 11.26538 N/A
12:55 am 00:55 Cloudy 59 15 57 14.1 94 94 SE 17 28 29.77 1008 7 11.26538 N/A
1:15 am 01:15 Cloudy 59 15 57 14.1 94 94 SE 14 22 29.77 1008 7 11.26538 N/A
1:35 am 01:35 Cloudy 60 15.3 58 14.5 95 95 SE 17 28 29.77 1008 10 16.0934 N/A
1:55 am 01:55 Cloudy 60 15.5 58 14.5 94 94 SE 15 24 29.74 1007 10 16.0934 N/A
2:15 am 02:15 Cloudy 60 15.5 58 14.5 94 94 SSE 18 30 29.74 1007 10 16.0934 N/A
2:35 am 02:35 Cloudy 60 15.5 58 14.6 94 94 SSE 17 28 29.74 1007 10 16.0934 N/A
2:55 am 02:55 Cloudy 60 15.6 58 14.6 94 94 SSE 15 24 29.74 1007 10 16.0934 N/A
3:15 am 03:15 Cloudy 60 15.6 58 14.6 94 94 SE 16 26 29.71 1006 10 16.0934 N/A
3:35 am 03:35 Cloudy 60 15.6 58 14.6 94 94 SSE 14 22 29.71 1006 10 16.0934 N/A
3:55 am 03:55 Cloudy 60 15.7 58 14.7 94 94 SSE 14 22 29.71 1006 10 16.0934 N/A
4:15 am 04:15 Cloudy 60 15.7 58 14.6 93 93 SE 15 24 29.71 1006 7 11.26538 N/A
4:35 am 04:35 Cloudy 60 15.5 58 14.5 94 94 SE 14 22 29.71 1006 10 16.0934 N/A
4:55 am 04:55 Cloudy 60 15.6 58 14.7 94 94 SE 13 20 29.71 1006 10 16.0934 N/A
5:15 am 05:15 Cloudy 60 15.6 58 14.7 94 94 SSE 17 28 29.71 1006 7 11.26538 N/A
5:35 am 05:35 Cloudy with Light Rain 60 15.7 58 14.7 94 94 SE 14 22 29.68 1005 7 11.26538 0.01 0.254
5:55 am 05:55 Cloudy 60 15.6 58 14.6 94 94 SE 16 26 29.68 1005 10 16.0934 0.01 0.254
6:15 am 06:15 Cloudy 60 15.6 58 14.5 93 93 SSE 15 24 29.68 1005 10 16.0934 N/A
6:35 am 06:35 Cloudy 60 15.6 58 14.5 93 93 SE 12 19 29.68 1005 10 16.0934 N/A
6:55 am 06:55 Cloudy 60 15.7 58 14.6 93 93 SE 13 20 29.68 1005 10 16.0934 N/A
7:15 am 07:15 Cloudy with Mist and Fog 60 15.6 58 14.5 93 93 SE 13 20 29.68 1005 4 6.43736 N/A
7:35 am 07:35 Cloudy 60 15.6 58 14.7 94 94 SE 10 17 29.68 1005 7 11.26538 N/A
7:55 am 07:55 Cloudy 60 15.7 59 14.8 94 94 SSE 13 20 29.68 1005 10 16.0934 N/A
8:15 am 08:15 Cloudy with Drizzle 60 15.7 59 14.8 94 94 SE 14 22 29.68 1005 5 8.0467 N/A
8:35 am 08:35 Cloudy with Light Rain 60 15.8 59 15 95 95 SSE 14 22 29.68 1005 7 11.26538 N/A
8:55 am 08:55 Cloudy 61 16.1 59 15.1 94 94 SSE 16 26 29.65 1004 10 16.0934 N/A
9:15 am 09:15 Cloudy 61 16.3 59 15.2 93 93 S 16 26 29.65 1004 10 16.0934 N/A
9:35 am 09:35 Cloudy 62 16.5 59 15.2 92 92 SSE 12 19 29.62 1003 10 16.0934 N/A
9:55 am 09:55 Cloudy 62 16.4 59 15.1 92 92 SSE 13 20 29.65 1004 10 16.0934 N/A
10:15 am 10:15 Cloudy with Light Rain 62 16.5 60 15.4 93 93 SSE 13 20 29.62 1003 10 16.0934 N/A
10:35 am 10:35 Cloudy 63 17.1 60 15.6 91 91 SSE 15 24 29.62 1003 10 16.0934 N/A
10:55 am 10:55 Cloudy 63 17.3 60 15.6 90 90 SSE 16 26 29.62 1003 10 16.0934 N/A
11:15 am 11:15 Cloudy 64 18 60 15.5 85 85 SSE 17 28 29.62 1003 10 16.0934 N/A
11:35 am 11:35 Cloudy 66 18.9 60 15.6 81 81 SSE 18 30 29.62 1003 10 16.0934 N/A
11:55 am 11:55 Mostly Cloudy 67 19.2 59 15 77 77 SSE 15 24 29.62 1003 10 16.0934 N/A
12:15 pm 12:15 Cloudy 66 18.8 59 15 79 79 SSE 21 33 29.62 1003 10 16.0934 N/A
12:35 pm 12:35 Cloudy 66 19.1 58 14.5 75 75 SSE 23 37 29.62 1003 10 16.0934 N/A
12:55 pm 12:55 Cloudy 65 18.5 58 14.7 79 79 SSE 24 39 29.62 1003 10 16.0934 N/A
1:15 pm 13:15 Cloudy 63 17.3 58 14.3 83 83 SSE 20 31 29.62 1003 10 16.0934 N/A
1:35 pm 13:35 Cloudy 63 17 56 13.6 81 81 SSE 16 26 29.62 1003 10 16.0934 N/A
1:55 pm 13:55 Cloudy 64 18 58 14.3 79 79 SSE 15 24 29.62 1003 10 16.0934 N/A
2:15 pm 14:15 Cloudy 65 18.5 58 14.5 78 78 S 18 30 29.62 1003 10 16.0934 N/A
2:35 pm 14:35 Mostly Cloudy 67 19.3 59 14.8 75 75 S 17 28 29.62 1003 10 16.0934 N/A
2:55 pm 14:55 Cloudy 67 19.4 59 15 76 76 SSE 15 24 29.59 1002 10 16.0934 N/A
3:15 pm 15:15 Cloudy 68 19.9 59 15.2 74 74 SSE 17 28 29.56 1001 10 16.0934 N/A
3:35 pm 15:35 Cloudy 68 20.2 58 14.5 70 70 S 12 19 29.53 1000 10 16.0934 N/A
3:55 pm 15:55 Mostly Cloudy 69 20.5 59 15 71 71 SSE 13 20 29.53 1000 10 16.0934 N/A
4:15 pm 16:15 Mostly Cloudy 71 21.5 59 15.1 67 67 S 15 24 29.5 999 10 16.0934 N/A
4:35 pm 16:35 Partly Cloudy 72 22.2 58 14.6 62 62 S 15 24 29.5 999 10 16.0934 N/A
4:55 pm 16:55 Mostly Cloudy 70 21.3 58 14.3 64 64 SSE 12 19 29.5 999 10 16.0934 N/A
5:15 pm 17:15 Cloudy 70 21.3 57 14.1 64 64 SSE 13 20 29.47 998 10 16.0934 N/A
5:35 pm 17:35 Cloudy 66 19.1 59 15 77 77 ESE 20 31 29.5 999 10 16.0934 N/A
5:55 pm 17:55 Cloudy 64 17.7 60 15.6 88 88 ESE 15 24 29.53 1000 10 16.0934 N/A
6:15 pm 18:15 Cloudy with Light Rain 63 17.1 60 15.5 90 90 SE 13 20 29.53 1000 4 6.43736 0.03 0.762
6:35 pm 18:35 Mostly Cloudy 64 17.6 62 16.6 94 94 SE 15 24 29.53 1000 10 16.0934 0.03 0.762
6:55 pm 18:55 Partly Cloudy 64 18 62 16.8 93 93 SE 13 20 29.53 1000 10 16.0934 0.03 0.762
7:15 pm 19:15 Partly Cloudy 64 18 62 16.5 91 91 SE 9 15 29.53 1000 10 16.0934 N/A
7:35 pm 19:35 Mostly Cloudy 64 18 62 16.5 91 91 SE 7 11 29.53 1000 10 16.0934 N/A
7:55 pm 19:55 Cloudy 65 18.3 60 15.7 85 85 S 7 11 29.53 1000 10 16.0934 N/A
8:15 pm 20:15 Cloudy 65 18.1 57 14.1 78 78 SSW 7 11 29.53 1000 10 16.0934 N/A
8:35 pm 20:35 Cloudy 64 17.8 57 13.8 78 78 S 6 9 29.53 1000 10 16.0934 N/A
8:55 pm 20:55 Cloudy 63 17.1 58 14.4 84 84 SSE 5 7 29.53 1000 10 16.0934 N/A
9:15 pm 21:15 Cloudy 63 17.3 58 14.4 83 83 N N/A 29.53 1000 10 16.0934 N/A
9:35 pm 21:35 Cloudy with Light Rain 63 17 58 14.7 86 86 N N/A 29.53 1000 7 11.26538 N/A
9:55 pm 21:55 Cloudy 63 17.1 60 15.3 89 89 SE 3 6 29.56 1001 10 16.0934 N/A
10:15 pm 22:15 Cloudy 63 17 60 15.5 91 91 ESE 3 6 29.56 1001 10 16.0934 N/A
10:35 pm 22:35 Cloudy 62 16.5 60 15.3 93 93 E 5 7 29.56 1001 10 16.0934 N/A
10:55 pm 22:55 Mostly Cloudy with Mist and Fog 60 15.6 58 14.5 93 93 E 5 7 29.59 1002 5 8.0467 N/A
11:15 pm 23:15 Partly Cloudy 60 15.5 58 14.6 94 94 ESE 5 7 29.59 1002 7 11.26538 N/A
11:35 pm 23:35 Clear 59 14.8 57 14 95 95 E 5 7 29.59 1002 7 11.26538 N/A
11:55 pm 23:55 Clear 58 14.7 57 14 96 96 E 5 7 29.59 1002 7 11.26538 0.01 0.254

Powered by AerisWeather